This demonstration page uses our WeatherBlox Daily Observations layout. Learn more.

Left ArrowRight Arrow

39.51506, -84.39828

Hourly Observations for February 12, 2019

Temp ( °F °C ) Dew Point ( °F °C ) Humidity (%) Winds ( mph kmh ) Pressure ( in mb ) Visibility ( mi km ) Precip ( " mm )
12:15 am 00:15 Cloudy with Light Rain 38 3.2 37 2.7 97 97 ENE 6 9 29.92 1013 3 5 0.01 0.25
12:35 am 00:35 Cloudy with Light Rain 38 3.4 37 2.9 97 97 NE 7 11 29.90 1012 2 3 0.02 0.51
12:55 am 00:55 Cloudy with Light Rain 38 3.6 38 3.1 97 97 ENE 7 11 29.89 1012 10 16 0.02 0.51
1:15 am 01:15 Cloudy with Light Rain 39 3.8 38 3.1 95 95 E 7 11 29.87 1012 7 11 0.00 0.00
1:35 am 01:35 Cloudy with Light Rain 39 3.8 38 3.1 95 95 E 7 11 29.85 1011 3 5 0.03 0.76
1:55 am 01:55 Cloudy with Light Rain 39 3.8 38 3.1 95 95 ENE 6 9 29.83 1010 5 8 0.04 1.02
2:15 am 02:15 Cloudy with Light Rain 39 3.7 38 3.1 96 96 E 5 7 29.83 1010 5 8 0.02 0.51
2:35 am 02:35 Cloudy with Light Rain 39 3.8 38 3.3 97 97 E 5 7 29.80 1009 7 11 0.02 0.51
2:55 am 02:55 Cloudy with Light Rain 39 3.7 38 3.2 97 97 Calm 29.81 1009 7 11 0.03 0.76
3:15 am 03:15 Cloudy with Light Rain 39 3.9 38 3.4 97 97 E 3 6 29.79 1009 4 6 0.01 0.25
3:35 am 03:35 Cloudy with Rain 39 3.8 38 3.4 97 97 ENE 3 6 29.78 1009 4 6 0.05 1.27
3:55 am 03:55 Cloudy with Rain 39 3.9 38 3.6 98 98 NE 6 9 29.75 1008 5 8 0.09 2.29
4:15 am 04:15 Cloudy with Light Rain 39 3.9 38 3.6 98 98 NNE 5 7 29.74 1007 5 8 0.01 0.25
4:35 am 04:35 Cloudy with Rain 39 3.7 38 3.4 98 98 NNE 5 7 29.73 1007 3 5 0.02 0.51
4:55 am 04:55 Cloudy with Rain 39 3.9 38 3.6 98 98 N 3 6 29.72 1007 5 8 0.05 1.27
5:15 am 05:15 Cloudy with Rain 39 3.9 39 3.7 99 99 N 3 6 29.72 1007 4 6 0.03 0.76
5:35 am 05:35 Cloudy with Rain 40 4.2 39 4 99 99 Calm 29.71 1006 3 5 0.09 2.29
5:55 am 05:55 Cloudy with Rain 40 4.2 39 4 99 99 Calm 29.71 1006 1 2 0.12 3.05
6:15 am 06:15 Cloudy with Rain 40 4.2 39 4.1 99 99 Calm 29.69 1006 2 3 0.01 0.25
6:35 am 06:35 Cloudy with Light Rain 40 4.3 40 4.2 99 99 Calm 29.68 1005 2 3 0.03 0.76
6:55 am 06:55 Cloudy with Light Rain 40 4.3 40 4.2 99 99 Calm 29.67 1005 2 3 0.04 1.02
7:15 am 07:15 Cloudy with Light Rain 40 4.4 40 4.3 99 99 Calm 29.67 1005 3 5 0.01 0.25
7:35 am 07:35 Cloudy with Light Rain 40 4.7 40 4.6 99 99 Calm 29.65 1004 4 6 0.02 0.51
7:55 am 07:55 Cloudy with Light Rain 40 4.6 40 4.5 99 99 Calm 29.64 1004 3 4 0.04 1.02
8:15 am 08:15 Cloudy with Light Rain 41 5 41 4.9 99 99 Calm 29.63 1003 3 5 0.00 0.00
8:35 am 08:35 Cloudy with Light Rain 45 7 45 7 100 100 S 7 11 29.62 1003 3 4 0.01 0.25
8:55 am 08:55 Cloudy with Light Rain 51 10.6 51 10.6 100 100 S 12 19 29.61 1003 10 16 0.01 0.25
9:15 am 09:15 Cloudy with Light Rain 52 11 51 10.8 99 99 S 8 13 29.61 1003 10 16 0.01 0.25
9:35 am 09:35 Cloudy with Mist and Fog 50 10.2 50 9.9 98 98 SW 6 9 29.62 1003 5 8 0.01 0.25
9:55 am 09:55 Cloudy 52 11.1 51 10.7 97 97 WSW 13 20 29.62 1003 10 16 0.01 0.25
10:15 am 10:15 Cloudy with Light Rain 50 10.1 50 9.8 98 98 WSW 8 13 29.63 1003 7 11 0.00 0.00
10:35 am 10:35 Cloudy with Drizzle 50 10.1 49 9.7 97 97 SSW 6 9 29.62 1003 10 16 0.00 0.00
10:55 am 10:55 Cloudy 50 9.9 49 9.6 98 98 SSW 6 9 29.62 1003 10 16 0.00 0.00
11:15 am 11:15 Cloudy 50 10 49 9.6 97 97 SW 7 11 29.63 1003 10 16 0.00 0.00
11:35 am 11:35 Cloudy with Mist and Fog 50 10 49 9.6 97 97 WSW 7 11 29.64 1004 7 11 0.00 0.00
11:55 am 11:55 Cloudy with Drizzle 50 10.1 49 9.7 97 97 SW 6 9 29.62 1003 4 6 0.00 0.00
12:15 pm 12:15 Cloudy with Light Rain 50 10.1 50 9.8 98 98 SSW 9 15 29.61 1003 2 3 0.01 0.25
12:35 pm 12:35 Cloudy with Light Rain 50 10.2 50 9.9 98 98 SSW 9 15 29.62 1003 7 11 0.01 0.25
12:55 pm 12:55 Cloudy with Drizzle 51 10.3 50 9.9 97 97 SW 9 15 29.61 1003 3 5 0.01 0.25
1:15 pm 13:15 Cloudy with Light Rain 50 10.2 50 9.8 97 97 SSW 9 15 29.59 1002 2 3 0.01 0.25
1:35 pm 13:35 Cloudy with Light Rain 51 10.4 50 10 97 97 SSW 9 15 29.58 1002 10 16 0.01 0.25
1:55 pm 13:55 Cloudy 51 10.3 50 9.8 97 97 SW 8 13 29.57 1001 10 16 0.01 0.25
2:15 pm 14:15 Cloudy with Mist and Fog 50 10.2 49 9.7 97 97 WSW 6 9 29.56 1001 7 11 0.00 0.00
2:35 pm 14:35 Cloudy with Drizzle 50 10.1 48 8.8 92 92 SW 16 26 29.56 1001 3 5 0.01 0.25
2:55 pm 14:55 Cloudy with Rain 49 9.2 46 7.7 90 90 W 24 39 29.59 1002 2 3 0.02 0.51
3:15 pm 15:15 Cloudy with Rain 48 8.7 45 7.1 90 90 W 24 39 29.61 1003 7 11 0.02 0.51
3:35 pm 15:35 Cloudy with Light Rain 46 7.7 43 6.1 90 90 W 18 30 29.61 1003 7 11 0.04 1.02
3:55 pm 15:55 Cloudy with Light Rain 44 6.6 40 4.7 88 88 W 20 31 29.63 1003 10 16 0.05 1.27
4:15 pm 16:15 Cloudy 42 5.3 38 3.3 87 87 W 22 35 29.66 1004 10 16 0.00 0.00
4:35 pm 16:35 Cloudy 40 4.2 36 2.3 88 88 W 17 28 29.69 1006 10 16 0.00 0.00
4:55 pm 16:55 Cloudy 38 3.4 34 1.1 85 85 W 24 39 29.71 1006 10 16 0.00 0.00
5:15 pm 17:15 Cloudy 38 3.2 33 0.6 83 83 WSW 17 28 29.73 1007 10 16 0.00 0.00
5:35 pm 17:35 Cloudy with Drizzle 37 3 33 0.6 84 84 WSW 21 33 29.74 1007 10 16 0.00 0.00
5:55 pm 17:55 Cloudy with Drizzle 36 2.4 33 0.4 87 87 WSW 17 28 29.75 1007 10 16 0.00 0.00
6:15 pm 18:15 Cloudy with Rain 35 1.9 32 0 87 87 WSW 22 35 29.78 1008 3 5 0.00 0.00
6:35 pm 18:35 Cloudy 36 2 30 -1 81 81 WSW 22 35 29.78 1008 10 16 0.00 0.00
7:15 pm 19:15 Cloudy 35 1.5 30 -1.3 82 82 W 15 24 29.82 1010 10 16 0.00 0.00
7:35 pm 19:35 Cloudy 34 1.2 27 -2.6 76 76 WSW 21 33 29.83 1010 10 16 0.00 0.00
7:55 pm 19:55 Cloudy 34 1 27 -2.8 76 76 WSW 17 28 29.83 1010 10 16 0.00 0.00
8:15 pm 20:15 Windy with Snow Likely 34 0.9 27 -2.7 77 77 WSW 22 35 29.84 1011 10 16 0.00 0.00
8:35 pm 20:35 Windy with Snow Likely 34 0.9 26 -3.6 72 72 WSW 25 41 29.85 1011 10 16 0.00 0.00
8:55 pm 20:55 Windy with Snow Likely 33 0.6 24 -4.2 71 71 WSW 28 44 29.86 1011 10 16 0.00 0.00
9:15 pm 21:15 Cloudy 33 0.6 24 -4.5 69 69 WSW 16 26 29.86 1011 10 16 0.00 0.00
9:35 pm 21:35 Windy with Snow Likely 33 0.5 25 -4.1 72 72 WSW 20 31 29.87 1012 10 16 0.00 0.00
9:55 pm 21:55 Cloudy with Light Snow 33 0.3 25 -4.1 73 73 WSW 18 30 29.87 1012 10 16 0.00 0.00
10:15 pm 22:15 Windy with Snow Likely 33 0.3 23 -5.1 67 67 WSW 21 33 29.87 1012 10 16 0.00 0.00
10:35 pm 22:35 Windy with Snow Likely 32 0 23 -4.9 70 70 WSW 25 41 29.88 1012 10 16 0.00 0.00
10:55 pm 22:55 Windy with Snow Likely 31 -0.3 23 -4.8 72 72 WSW 23 37 29.89 1012 10 16 0.00 0.00
11:15 pm 23:15 Windy with Snow Likely 31 -0.5 24 -4.5 75 75 WSW 22 35 29.90 1012 10 16 0.00 0.00
11:35 pm 23:35 Cloudy with Light Snow 31 -0.6 24 -4.2 77 77 WSW 17 28 29.90 1012 7 11 0.00 0.00
11:55 pm 23:55 Windy with Snow Likely 31 -0.4 24 -4.4 75 75 WSW 22 35 29.90 1012 10 16 0.00 0.00

Powered by AerisWeather